Simultaneous Nadir Overpasses (SNOs) Predictions

Prediction of SNOs between NOAA-21 and NOAA-19 Satellite Orbit:

Table of predicted SNOs for the next 14.0 days since TLE Epoch: 11/23/2024
Index Date (NOAA-21) Time (NOAA-21) Lat,Lon (NOAA-21) SZA (NOAA-21 ) Date (NOAA-19) Time (NOAA-19) Lat,Lon (NOAA-19) SZA (NOAA-19 ) Distance(km) Time Diff (sec)
1 12/05/2024 16:56:28 -71.62, 100.05 85.96 12/05/2024 16:55:20 -71.63, 97.76 85.89 80.38 68
2 12/05/2024 17:47:25 72.22, -93.76 94.67 12/05/2024 17:46:10 72.24, -93.81 94.70 2.67 75
3 12/05/2024 18:38:10 -72.25, 73.51 85.30 12/05/2024 18:37:05 -72.25, 73.47 85.30 1.24 65
4 12/05/2024 19:28:56 72.28,-119.25 94.74 12/05/2024 19:28:06 72.30,-119.18 94.76 2.94 50
5 12/05/2024 20:19:41 -72.31, 48.02 85.23 12/05/2024 20:19:01 -72.30, 48.10 85.24 2.79 40
6 12/05/2024 21:10:26 72.29,-144.64 94.76 12/05/2024 21:10:03 72.31,-144.65 94.78 1.70 23
7 12/05/2024 22:01:11 -72.31, 22.63 85.22 12/05/2024 22:00:58 -72.31, 22.63 85.22 0.50 13
8 12/05/2024 22:51:56 72.30,-170.03 94.77 12/05/2024 22:52:00 72.31,-170.13 94.79 3.67 4
9 12/05/2024 23:42:41 -72.32, -2.76 85.20 12/05/2024 23:42:55 -72.32, -2.85 85.21 2.95 14
10 12/06/2024 00:33:27 72.36, 164.48 94.85 12/06/2024 00:33:56 72.37, 164.50 94.85 1.35 29
11 12/06/2024 01:24:12 -72.38, -28.25 85.13 12/06/2024 01:24:51 -72.37, -28.22 85.14 1.44 39
12 12/06/2024 02:14:57 72.36, 139.09 94.86 12/06/2024 02:15:53 72.37, 139.03 94.87 2.36 56
13 12/06/2024 03:05:42 -72.39, -53.64 85.12 12/06/2024 03:06:48 -72.38, -53.69 85.13 1.92 66
14 12/06/2024 03:56:33 72.68, 113.09 95.20 12/06/2024 03:57:45 72.63, 114.08 95.12 33.45 72
15 12/06/2024 04:47:25 -73.05, -80.39 84.41 12/06/2024 04:48:32 -73.03, -77.77 84.49 85.02 67



Historial Predications of SNOs between NOAA-21 and NOAA-19
